Location: Владивосток
(43.1151°N, 131.8856°E)
Time: 23:39:31
(UTC+10:00)

EO-88 - Pass Details

Date: 04 July 2022
Orbit: 454 x 462 km, 97.3° (Epoch: 07 August)

Event Time Altitude Azimuth Distance (km) Brightness Sun altitude
Exits shadow 22:29:43 24° 153° (SSE) 998 ? -13.7°
Maximum altitude 22:31:38 67° 76° (ENE) 510 ? -13.9°
Drops below altitude 10° 22:35:07 10° 353° (N) 1,630 ? -14.3°
Sets 22:37:11 0° 351° (N) 2,510 ? -14.5°
